sat.trackr.live / text

‹ back to catalog

STARLINK-4131

NORAD 53246 · 2022-086E

PAYLOAD ACTIVE UNKNOWN

§ Identity

Operator
Country
US
Launch date
2022-07-24
Launch site
AFETR
Launch vehicle
Mass (kg)
RCS (m²)

Purposes: comms

External: N2YO · Heavens-Above · Gunter

§ Orbital elements

Epoch: 2026-05-24T22:33:34.744608Z

Period
95.44 min
Inclination
53.2151°
Eccentricity
0.0001074
Mean motion
15.08841553 rev/d
Perigee alt
539.0 km
Apogee alt
540.5 km
Semi-major
6,917.9 km
B*
2.6754e-5
RAAN
221.8217°
Arg perigee
84.5459°
Mean anomaly
275.5656°
Rev number
21,164

§ Raw data

STARLINK-41311 53246U 22086E   26144.93998547  .00000138  00000+0  26754-4 0  99982 53246  53.2151 221.8217 0001074  84.5459 275.5656 15.08841553211649

JSON: /api/v1/satellites/53246 · /tle

For live sub-satellite position, see the globe view (requires WebGL).

§ Visibility from observer

Set your observer location to see the next 7 days of passes ≥ 10°. The values pass through the URL so the page stays shareable.

No JS? Fill the form by hand. The geolocation button needs JavaScript.